Time,TemperatureF,DewpointF,PressureIn,WindDirection,WindDirectionDegrees,WindSpeedMPH,WindSpeedGustMPH,Humidity,HourlyPrecipIn,Conditions,Clouds,dailyrainin,SolarRadiationWatts/m^2,SoftwareType,DateUTC
2013-05-19 00:02:00,47.0,41.0,-100.00,SE,137,3.0,6.0,79,0.00,,,0.00,1.000000,,2013-05-19 06:02:00,
2013-05-19 00:11:00,47.0,41.0,-100.00,SE,137,3.0,6.0,79,0.00,,,0.00,1.000000,,2013-05-19 06:11:00,
2013-05-19 00:42:00,46.0,41.0,-100.00,East,89,1.0,3.0,83,0.00,,,0.00,1.000000,,2013-05-19 06:42:00,
2013-05-19 00:52:00,46.0,41.0,-100.00,East,89,1.0,3.0,83,0.00,,,0.00,1.000000,,2013-05-19 06:52:00,
2013-05-19 01:01:00,46.0,41.0,-100.00,East,89,1.0,3.0,83,0.00,,,0.00,1.000000,,2013-05-19 07:01:00,
2013-05-19 01:11:00,46.0,41.0,-100.00,East,89,1.0,3.0,83,0.00,,,0.00,1.000000,,2013-05-19 07:11:00,
2013-05-19 01:42:00,45.0,40.0,-100.00,East,89,0.0,3.0,84,0.00,,,0.00,1.000000,,2013-05-19 07:42:00,
2013-05-19 01:52:00,45.0,40.0,-100.00,East,89,0.0,3.0,84,0.00,,,0.00,1.000000,,2013-05-19 07:52:00,
2013-05-19 02:01:00,45.0,40.0,-100.00,East,89,0.0,3.0,84,0.00,,,0.00,1.000000,,2013-05-19 08:01:00,
2013-05-19 02:12:00,45.0,40.0,-100.00,East,89,0.0,3.0,84,0.00,,,0.00,1.000000,,2013-05-19 08:12:00,
2013-05-19 02:32:00,44.0,40.0,-100.00,ESE,117,0.0,2.0,87,0.00,,,0.00,1.000000,,2013-05-19 08:32:00,
2013-05-19 02:42:00,44.0,40.0,-100.00,ESE,117,0.0,2.0,87,0.00,,,0.00,1.000000,,2013-05-19 08:42:00,
2013-05-19 02:52:00,44.0,40.0,-100.00,ESE,117,0.0,2.0,87,0.00,,,0.00,1.000000,,2013-05-19 08:52:00,
2013-05-19 03:02:00,44.0,40.0,-100.00,ESE,117,0.0,2.0,87,0.00,,,0.00,1.000000,,2013-05-19 09:02:00,
2013-05-19 03:11:00,44.0,40.0,-100.00,ESE,117,0.0,2.0,87,0.00,,,0.00,1.000000,,2013-05-19 09:11:00,
2013-05-19 03:33:00,44.0,41.0,-100.00,NE,46,0.0,2.0,88,0.00,,,0.00,1.000000,,2013-05-19 09:33:00,
2013-05-19 03:43:00,44.0,41.0,-100.00,NE,46,0.0,2.0,88,0.00,,,0.00,1.000000,,2013-05-19 09:43:00,
2013-05-19 03:53:00,44.0,41.0,-100.00,NE,46,0.0,2.0,88,0.00,,,0.00,1.000000,,2013-05-19 09:53:00,
2013-05-19 04:02:00,44.0,41.0,-100.00,NE,46,0.0,2.0,88,0.00,,,0.00,1.000000,,2013-05-19 10:02:00,
2013-05-19 04:12:00,44.0,41.0,-100.00,NE,46,0.0,2.0,88,0.00,,,0.00,1.000000,,2013-05-19 10:12:00,
2013-05-19 04:33:00,43.0,40.0,-100.00,SE,131,1.0,1.0,90,0.00,,,0.00,1.000000,,2013-05-19 10:33:00,
2013-05-19 04:42:00,43.0,40.0,-100.00,SE,131,1.0,1.0,90,0.00,,,0.00,1.000000,,2013-05-19 10:42:00,
2013-05-19 04:52:00,43.0,40.0,-100.00,SE,131,1.0,1.0,90,0.00,,,0.00,1.000000,,2013-05-19 10:52:00,
2013-05-19 05:02:00,43.0,40.0,-100.00,SE,131,1.0,1.0,90,0.00,,,0.00,1.000000,,2013-05-19 11:02:00,
2013-05-19 05:11:00,43.0,40.0,-100.00,SE,131,1.0,1.0,90,0.00,,,0.00,1.000000,,2013-05-19 11:11:00,
2013-05-19 05:32:00,43.0,40.0,-100.00,ESE,122,1.0,2.0,90,0.00,,,0.00,1.000000,,2013-05-19 11:32:00,
2013-05-19 05:42:00,43.0,40.0,-100.00,ESE,122,1.0,2.0,90,0.00,,,0.00,1.000000,,2013-05-19 11:42:00,
2013-05-19 05:52:00,43.0,40.0,-100.00,ESE,122,1.0,2.0,90,0.00,,,0.00,1.000000,,2013-05-19 11:52:00,
2013-05-19 06:01:00,43.0,40.0,-100.00,ESE,122,1.0,2.0,90,0.00,,,0.00,1.000000,,2013-05-19 12:01:00,
2013-05-19 06:11:00,43.0,40.0,-100.00,ESE,122,1.0,2.0,90,0.00,,,0.00,1.000000,,2013-05-19 12:11:00,
2013-05-19 06:32:00,42.0,40.0,-100.00,SE,144,1.0,3.0,91,0.00,,,0.00,1.000000,,2013-05-19 12:32:00,
2013-05-19 06:42:00,42.0,40.0,-100.00,SE,144,1.0,3.0,91,0.00,,,0.00,1.000000,,2013-05-19 12:42:00,
2013-05-19 06:52:00,42.0,40.0,-100.00,SE,144,1.0,3.0,91,0.00,,,0.00,1.000000,,2013-05-19 12:52:00,
2013-05-19 07:01:00,42.0,40.0,-100.00,SE,144,1.0,3.0,91,0.00,,,0.00,1.000000,,2013-05-19 13:01:00,
2013-05-19 07:11:00,42.0,40.0,-100.00,SE,144,1.0,3.0,91,0.00,,,0.00,1.000000,,2013-05-19 13:11:00,
2013-05-19 07:42:00,41.0,39.0,-100.00,ENE,67,0.0,2.0,91,0.00,,,0.00,2.000000,,2013-05-19 13:42:00,
2013-05-19 07:52:00,41.0,39.0,-100.00,ENE,67,0.0,2.0,91,0.00,,,0.00,2.000000,,2013-05-19 13:52:00,
2013-05-19 08:02:00,41.0,39.0,-100.00,ENE,67,0.0,2.0,91,0.00,,,0.00,2.000000,,2013-05-19 14:02:00,
2013-05-19 08:11:00,41.0,39.0,-100.00,ENE,67,0.0,2.0,91,0.00,,,0.00,2.000000,,2013-05-19 14:11:00,
2013-05-19 08:42:00,43.0,40.0,-100.00,NNE,21,1.0,3.0,90,0.00,,,0.00,29.000000,,2013-05-19 14:42:00,
2013-05-19 08:52:00,43.0,40.0,-100.00,NNE,21,1.0,3.0,90,0.00,,,0.00,29.000000,,2013-05-19 14:52:00,
2013-05-19 09:01:00,43.0,40.0,-100.00,NNE,21,1.0,3.0,90,0.00,,,0.00,29.000000,,2013-05-19 15:01:00,
2013-05-19 09:11:00,43.0,40.0,-100.00,NNE,21,1.0,3.0,90,0.00,,,0.00,29.000000,,2013-05-19 15:11:00,
2013-05-19 09:43:00,45.0,40.0,-100.00,SW,223,0.0,3.0,83,0.00,,,0.00,76.000000,,2013-05-19 15:43:00,
2013-05-19 09:53:00,45.0,40.0,-100.00,SW,223,0.0,3.0,83,0.00,,,0.00,76.000000,,2013-05-19 15:53:00,
2013-05-19 10:03:00,45.0,40.0,-100.00,SW,223,0.0,3.0,83,0.00,,,0.00,76.000000,,2013-05-19 16:03:00,
2013-05-19 10:12:00,45.0,40.0,-100.00,SW,223,0.0,3.0,83,0.00,,,0.00,76.000000,,2013-05-19 16:12:00,
2013-05-19 10:42:00,48.0,38.0,-100.00,NNW,342,2.0,4.0,68,0.00,,,0.00,165.000000,,2013-05-19 16:42:00,
2013-05-19 10:52:00,48.0,38.0,-100.00,NNW,342,2.0,4.0,68,0.00,,,0.00,165.000000,,2013-05-19 16:52:00,
2013-05-19 11:02:00,48.0,38.0,-100.00,NNW,342,2.0,4.0,68,0.00,,,0.00,165.000000,,2013-05-19 17:02:00,
2013-05-19 11:12:00,48.0,38.0,-100.00,NNW,342,2.0,4.0,68,0.00,,,0.00,165.000000,,2013-05-19 17:12:00,
2013-05-19 11:43:00,50.0,36.0,-100.00,NW,312,2.0,4.0,59,0.00,,,0.00,221.000000,,2013-05-19 17:43:00,
2013-05-19 11:52:00,50.0,36.0,-100.00,NW,312,2.0,4.0,59,0.00,,,0.00,221.000000,,2013-05-19 17:52:00,
2013-05-19 12:02:00,50.0,36.0,-100.00,NW,312,2.0,4.0,59,0.00,,,0.00,221.000000,,2013-05-19 18:02:00,
2013-05-19 12:12:00,50.0,36.0,-100.00,NW,312,2.0,4.0,59,0.00,,,0.00,221.000000,,2013-05-19 18:12:00,
2013-05-19 12:32:00,51.0,35.0,-100.00,NW,321,2.0,4.0,55,0.00,,,0.00,171.000000,,2013-05-19 18:32:00,
2013-05-19 12:43:00,51.0,35.0,-100.00,NW,321,2.0,4.0,55,0.00,,,0.00,171.000000,,2013-05-19 18:43:00,
2013-05-19 12:53:00,51.0,35.0,-100.00,NW,321,2.0,4.0,55,0.00,,,0.00,171.000000,,2013-05-19 18:53:00,
2013-05-19 13:01:00,51.0,35.0,-100.00,NW,321,2.0,4.0,55,0.00,,,0.00,171.000000,,2013-05-19 19:01:00,
2013-05-19 13:11:00,51.0,35.0,-100.00,NW,321,2.0,4.0,55,0.00,,,0.00,171.000000,,2013-05-19 19:11:00,
2013-05-19 13:32:00,50.0,37.0,-100.00,SW,231,3.0,6.0,60,0.00,,,0.00,187.000000,,2013-05-19 19:32:00,
2013-05-19 13:42:00,50.0,37.0,-100.00,SW,231,3.0,6.0,60,0.00,,,0.00,187.000000,,2013-05-19 19:42:00,
2013-05-19 13:52:00,50.0,37.0,-100.00,SW,231,3.0,6.0,60,0.00,,,0.00,187.000000,,2013-05-19 19:52:00,
2013-05-19 14:02:00,50.0,37.0,-100.00,SW,231,3.0,6.0,60,0.00,,,0.00,187.000000,,2013-05-19 20:02:00,
2013-05-19 14:11:00,50.0,37.0,-100.00,SW,231,3.0,6.0,60,0.00,,,0.00,187.000000,,2013-05-19 20:11:00,
2013-05-19 14:42:00,51.0,37.0,-100.00,SW,225,3.0,6.0,59,0.00,,,0.00,185.000000,,2013-05-19 20:42:00,
2013-05-19 14:52:00,51.0,37.0,-100.00,SW,225,3.0,6.0,59,0.00,,,0.00,185.000000,,2013-05-19 20:52:00,
2013-05-19 15:02:00,51.0,37.0,-100.00,SW,225,3.0,6.0,59,0.00,,,0.00,185.000000,,2013-05-19 21:02:00,
2013-05-19 15:11:00,51.0,37.0,-100.00,SW,225,3.0,6.0,59,0.00,,,0.00,185.000000,,2013-05-19 21:11:00,
2013-05-19 15:32:00,53.0,38.0,-100.00,NNE,13,3.0,5.0,56,0.00,,,0.00,213.000000,,2013-05-19 21:32:00,
2013-05-19 15:43:00,53.0,38.0,-100.00,NNE,13,3.0,5.0,56,0.00,,,0.00,213.000000,,2013-05-19 21:43:00,
2013-05-19 15:53:00,53.0,38.0,-100.00,NNE,13,3.0,5.0,56,0.00,,,0.00,213.000000,,2013-05-19 21:53:00,
2013-05-19 16:02:00,53.0,38.0,-100.00,NNE,13,3.0,5.0,56,0.00,,,0.00,213.000000,,2013-05-19 22:02:00,
2013-05-19 16:12:00,53.0,38.0,-100.00,NNE,13,3.0,5.0,56,0.00,,,0.00,213.000000,,2013-05-19 22:12:00,
2013-05-19 16:42:00,54.0,36.0,-100.00,WNW,295,2.0,5.0,50,0.00,,,0.00,224.000000,,2013-05-19 22:42:00,
2013-05-19 16:53:00,54.0,36.0,-100.00,WNW,295,2.0,5.0,50,0.00,,,0.00,224.000000,,2013-05-19 22:53:00,
2013-05-19 17:02:00,54.0,36.0,-100.00,WNW,295,2.0,5.0,50,0.00,,,0.00,224.000000,,2013-05-19 23:02:00,
2013-05-19 17:11:00,54.0,36.0,-100.00,WNW,295,2.0,5.0,50,0.00,,,0.00,224.000000,,2013-05-19 23:11:00,
2013-05-19 17:42:00,55.0,34.0,-100.00,North,350,3.0,6.0,45,0.00,,,0.00,268.000000,,2013-05-19 23:42:00,
2013-05-19 17:52:00,55.0,34.0,-100.00,North,350,3.0,6.0,45,0.00,,,0.00,268.000000,,2013-05-19 23:52:00,
2013-05-19 18:02:00,55.0,34.0,-100.00,North,350,3.0,6.0,45,0.00,,,0.00,268.000000,,2013-05-20 00:02:00,
2013-05-19 18:11:00,55.0,34.0,-100.00,North,350,3.0,6.0,45,0.00,,,0.00,268.000000,,2013-05-20 00:11:00,
2013-05-19 18:42:00,54.0,35.0,-100.00,West,267,4.0,8.0,49,0.00,,,-99.99,145.000000,,2013-05-20 00:42:00,
2013-05-19 18:52:00,54.0,35.0,-100.00,West,267,4.0,8.0,49,0.00,,,-99.99,145.000000,,2013-05-20 00:52:00,
2013-05-19 19:01:00,54.0,35.0,-100.00,West,267,4.0,8.0,49,0.00,,,-99.99,145.000000,,2013-05-20 01:01:00,
2013-05-19 19:11:00,54.0,35.0,-100.00,West,267,4.0,8.0,49,0.00,,,-99.99,145.000000,,2013-05-20 01:11:00,
2013-05-19 19:42:00,53.0,37.0,-100.00,South,186,2.0,9.0,54,0.00,,,0.00,96.000000,,2013-05-20 01:42:00,
2013-05-19 19:52:00,53.0,37.0,-100.00,South,186,2.0,9.0,54,0.00,,,0.00,96.000000,,2013-05-20 01:52:00,
2013-05-19 20:02:00,53.0,37.0,-100.00,South,186,2.0,9.0,54,0.00,,,0.00,96.000000,,2013-05-20 02:02:00,
2013-05-19 20:11:00,53.0,37.0,-100.00,South,186,2.0,9.0,54,0.00,,,0.00,96.000000,,2013-05-20 02:11:00,
2013-05-19 20:32:00,53.0,38.0,-100.00,SSW,207,2.0,6.0,57,0.00,,,0.00,105.000000,,2013-05-20 02:32:00,
2013-05-19 20:42:00,53.0,38.0,-100.00,SSW,207,2.0,6.0,57,0.00,,,0.00,105.000000,,2013-05-20 02:42:00,
2013-05-19 20:52:00,53.0,38.0,-100.00,SSW,207,2.0,6.0,57,0.00,,,0.00,105.000000,,2013-05-20 02:52:00,
2013-05-19 21:01:00,53.0,38.0,-100.00,SSW,207,2.0,6.0,57,0.00,,,0.00,105.000000,,2013-05-20 03:01:00,
2013-05-19 21:11:00,53.0,38.0,-100.00,SSW,207,2.0,6.0,57,0.00,,,0.00,105.000000,,2013-05-20 03:11:00,
2013-05-19 21:33:00,50.0,42.0,-100.00,ESE,122,2.0,7.0,75,0.00,,,0.00,27.000000,,2013-05-20 03:33:00,
2013-05-19 21:43:00,50.0,42.0,-100.00,ESE,122,2.0,7.0,75,0.00,,,0.00,27.000000,,2013-05-20 03:43:00,
2013-05-19 21:52:00,50.0,42.0,-100.00,ESE,122,2.0,7.0,75,0.00,,,0.00,27.000000,,2013-05-20 03:52:00,
2013-05-19 22:02:00,50.0,42.0,-100.00,ESE,122,2.0,7.0,75,0.00,,,0.00,27.000000,,2013-05-20 04:02:00,
2013-05-19 22:12:00,50.0,42.0,-100.00,ESE,122,2.0,7.0,75,0.00,,,0.00,27.000000,,2013-05-20 04:12:00,
2013-05-19 22:33:00,48.0,42.0,-100.00,ESE,118,1.0,3.0,80,0.00,,,0.00,7.000000,,2013-05-20 04:33:00,
2013-05-19 22:43:00,48.0,42.0,-100.00,ESE,118,1.0,3.0,80,0.00,,,0.00,7.000000,,2013-05-20 04:43:00,
2013-05-19 22:52:00,48.0,42.0,-100.00,ESE,118,1.0,3.0,80,0.00,,,0.00,7.000000,,2013-05-20 04:52:00,
2013-05-19 23:02:00,48.0,42.0,-100.00,ESE,118,1.0,3.0,80,0.00,,,0.00,7.000000,,2013-05-20 05:02:00,
2013-05-19 23:11:00,48.0,42.0,-100.00,ESE,118,1.0,3.0,80,0.00,,,0.00,7.000000,,2013-05-20 05:11:00,
2013-05-19 23:32:00,46.0,41.0,-100.00,SE,128,2.0,2.0,84,0.00,,,0.00,1.000000,,2013-05-20 05:32:00,
2013-05-19 23:42:00,46.0,41.0,-100.00,SE,128,2.0,2.0,84,0.00,,,0.00,1.000000,,2013-05-20 05:42:00,
2013-05-19 23:52:00,46.0,41.0,-100.00,SE,128,2.0,2.0,84,0.00,,,0.00,1.000000,,2013-05-20 05:52:00,